Total_Precipitation_Accumulation
0.68 0.59 0.76 0.81 0.73 0.80 1.08 0.97 0.86 0.54 0.46 0.48 0.48 0.46 0.42 0.41 0.39 0.38 0.42 0.46 0.46 0.46 0.48 0.49 0.52 0.52 0.53 0.55 0.64 0.73 0.80 0.82 0.82 0.88 0.91 0.92 0.91 0.91 0.89 0.91 0.91 0.91 0.88 0.85
0.65 0.55 0.65 0.69 0.61 0.61 0.63 0.60 0.58 0.46 0.51 0.45 0.42 0.39 0.37 0.37 0.35 0.35 0.38 0.40 0.40 0.39 0.39 0.40 0.46 0.50 0.50 0.51 0.59 0.64 0.72 0.77 0.75 0.74 0.77 0.85 0.93 0.95 0.95 0.92 0.93 0.94 0.97 0.96
0.77 0.54 0.68 0.81 0.68 0.57 0.55 0.53 0.52 0.60 0.58 0.41 0.40 0.39 0.41 0.39 0.35 0.36 0.35 0.34 0.35 0.35 0.34 0.38 0.43 0.46 0.44 0.48 0.57 0.60 0.67 0.76 0.77 0.75 0.78 0.81 0.89 0.97 1.01 1.02 1.02 1.07 1.13 1.17
0.89 0.72 0.94 0.79 0.46 0.37 0.39 0.45 0.45 0.49 0.44 0.39 0.44 0.43 0.37 0.34 0.32 0.32 0.31 0.31 0.30 0.30 0.30 0.31 0.35 0.39 0.42 0.44 0.50 0.54 0.59 0.67 0.74 0.78 0.88 0.94 0.99 1.02 1.05 1.09 1.15 1.23 1.30 1.30
0.92 0.78 0.62 0.41 0.31 0.37 0.40 0.47 0.39 0.34 0.30 0.29 0.31 0.35 0.34 0.28 0.26 0.28 0.31 0.33 0.33 0.32 0.34 0.32 0.31 0.35 0.40 0.45 0.51 0.55 0.60 0.67 0.74 0.79 0.86 0.95 1.07 1.12 1.14 1.17 1.22 1.23 1.20 1.13
0.93 0.83 0.57 0.43 0.26 0.25 0.35 0.53 0.33 0.29 0.27 0.25 0.24 0.31 0.37 0.31 0.26 0.23 0.24 0.30 0.33 0.32 0.34 0.36 0.37 0.40 0.45 0.50 0.58 0.67 0.74 0.79 0.89 0.95 0.96 0.96 1.02 1.08 1.08 1.02 0.99 0.90 0.80 0.72
0.84 0.82 0.53 0.42 0.24 0.20 0.48 0.64 0.33 0.30 0.30 0.26 0.29 0.32 0.27 0.21 0.22 0.24 0.24 0.28 0.33 0.36 0.38 0.41 0.45 0.52 0.60 0.66 0.73 0.80 0.86 0.88 0.96 1.01 1.00 0.96 0.87 0.78 0.71 0.66 0.63 0.60 0.55 0.48
0.64 0.82 0.63 0.32 0.27 0.51 0.65 0.38 0.29 0.26 0.26 0.26 0.24 0.19 0.15 0.14 0.15 0.17 0.22 0.28 0.35 0.40 0.43 0.46 0.52 0.57 0.63 0.69 0.72 0.73 0.77 0.76 0.77 0.72 0.64 0.60 0.60 0.55 0.51 0.50 0.48 0.48 0.48 0.48
0.65 0.74 0.59 0.41 0.46 0.49 0.41 0.33 0.27 0.27 0.26 0.25 0.21 0.18 0.15 0.14 0.13 0.13 0.16 0.21 0.26 0.31 0.34 0.36 0.39 0.45 0.51 0.51 0.47 0.45 0.46 0.46 0.47 0.45 0.42 0.42 0.44 0.46 0.47 0.47 0.48 0.48 0.47 0.47
0.47 0.44 0.34 0.29 0.25 0.24 0.25 0.30 0.27 0.25 0.25 0.24 0.24 0.22 0.19 0.17 0.16 0.15 0.15 0.18 0.22 0.24 0.26 0.27 0.28 0.33 0.40 0.38 0.33 0.32 0.36 0.37 0.38 0.40 0.40 0.41 0.42 0.43 0.46 0.48 0.47 0.48 0.49 0.48
0.37 0.32 0.26 0.23 0.21 0.22 0.21 0.20 0.20 0.20 0.22 0.24 0.25 0.24 0.23 0.22 0.22 0.22 0.21 0.22 0.25 0.29 0.29 0.29 0.28 0.29 0.31 0.32 0.31 0.32 0.33 0.36 0.36 0.38 0.40 0.41 0.43 0.46 0.50 0.52 0.55 0.56 0.53 0.50
0.43 0.35 0.38 0.33 0.27 0.24 0.23 0.23 0.24 0.23 0.21 0.22 0.26 0.29 0.26 0.26 0.26 0.27 0.27 0.26 0.28 0.32 0.35 0.35 0.34 0.34 0.33 0.34 0.35 0.36 0.37 0.38 0.39 0.41 0.42 0.46 0.49 0.50 0.56 0.59 0.62 0.62 0.57 0.54
0.39 0.31 0.28 0.26 0.23 0.23 0.26 0.28 0.28 0.28 0.27 0.26 0.25 0.26 0.26 0.26 0.26 0.26 0.26 0.27 0.31 0.34 0.37 0.39 0.39 0.39 0.40 0.40 0.38 0.40 0.41 0.43 0.42 0.41 0.42 0.45 0.51 0.54 0.55 0.57 0.61 0.62 0.60 0.58
0.26 0.24 0.26 0.26 0.28 0.25 0.25 0.25 0.25 0.25 0.25 0.25 0.24 0.22 0.23 0.25 0.26 0.27 0.30 0.33 0.34 0.35 0.36 0.37 0.37 0.39 0.42 0.43 0.41 0.42 0.43 0.47 0.49 0.45 0.44 0.47 0.51 0.56 0.56 0.56 0.56 0.53 0.54 0.58
0.24 0.27 0.33 0.30 0.25 0.24 0.23 0.22 0.22 0.23 0.23 0.23 0.23 0.23 0.23 0.25 0.27 0.30 0.31 0.32 0.32 0.33 0.35 0.35 0.36 0.38 0.39 0.42 0.43 0.43 0.43 0.45 0.50 0.52 0.51 0.51 0.53 0.55 0.55 0.55 0.56 0.54 0.51 0.55
0.22 0.20 0.20 0.20 0.22 0.21 0.20 0.21 0.21 0.22 0.22 0.21 0.22 0.23 0.25 0.26 0.26 0.26 0.27 0.28 0.31 0.36 0.37 0.36 0.37 0.39 0.38 0.39 0.41 0.41 0.43 0.51 0.55 0.55 0.55 0.53 0.52 0.52 0.52 0.52 0.53 0.50 0.48 0.49
0.20 0.20 0.18 0.19 0.19 0.20 0.21 0.24 0.26 0.26 0.24 0.24 0.25 0.25 0.24 0.23 0.23 0.24 0.27 0.29 0.32 0.36 0.38 0.38 0.39 0.38 0.38 0.39 0.40 0.40 0.42 0.48 0.55 0.54 0.52 0.52 0.52 0.53 0.53 0.52 0.51 0.47 0.45 0.49
0.22 0.24 0.24 0.24 0.24 0.25 0.25 0.25 0.25 0.25 0.26 0.26 0.25 0.24 0.24 0.25 0.26 0.27 0.28 0.27 0.26 0.28 0.32 0.36 0.39 0.41 0.42 0.42 0.42 0.43 0.45 0.48 0.50 0.51 0.51 0.51 0.53 0.53 0.53 0.52 0.49 0.47 0.45 0.50
0.20 0.21 0.22 0.23 0.26 0.28 0.29 0.30 0.31 0.30 0.29 0.28 0.27 0.27 0.27 0.28 0.28 0.28 0.26 0.24 0.24 0.27 0.31 0.33 0.37 0.37 0.38 0.42 0.46 0.46 0.47 0.48 0.49 0.48 0.48 0.51 0.51 0.48 0.48 0.48 0.47 0.46 0.46 0.48
0.21 0.23 0.23 0.24 0.26 0.29 0.31 0.30 0.30 0.29 0.29 0.28 0.27 0.26 0.26 0.28 0.28 0.28 0.26 0.27 0.32 0.36 0.36 0.36 0.33 0.32 0.34 0.37 0.44 0.45 0.44 0.45 0.46 0.46 0.47 0.48 0.48 0.46 0.45 0.46 0.46 0.45 0.46 0.46
0.20 0.22 0.23 0.25 0.27 0.29 0.31 0.30 0.28 0.29 0.29 0.27 0.28 0.29 0.29 0.28 0.26 0.25 0.25 0.28 0.31 0.31 0.30 0.31 0.30 0.31 0.33 0.38 0.40 0.40 0.40 0.42 0.44 0.46 0.48 0.49 0.49 0.47 0.46 0.46 0.46 0.45 0.46 0.46
0.23 0.23 0.22 0.22 0.22 0.23 0.24 0.24 0.24 0.25 0.25 0.26 0.26 0.26 0.26 0.25 0.24 0.23 0.24 0.28 0.31 0.30 0.28 0.28 0.29 0.34 0.40 0.41 0.37 0.36 0.37 0.40 0.43 0.46 0.48 0.50 0.51 0.49 0.47 0.46 0.46 0.44 0.43 0.44
0.24 0.24 0.25 0.25 0.24 0.24 0.23 0.23 0.24 0.24 0.24 0.25 0.26 0.26 0.26 0.25 0.23 0.23 0.25 0.25 0.25 0.26 0.26 0.28 0.32 0.37 0.39 0.37 0.34 0.34 0.36 0.38 0.41 0.43 0.46 0.48 0.50 0.50 0.49 0.47 0.45 0.43 0.42 0.41
0.21 0.22 0.23 0.21 0.19 0.17 0.19 0.20 0.22 0.23 0.23 0.22 0.23 0.24 0.23 0.22 0.19 0.19 0.22 0.23 0.22 0.23 0.23 0.24 0.28 0.30 0.31 0.29 0.29 0.31 0.33 0.34 0.36 0.38 0.39 0.41 0.42 0.43 0.43 0.42 0.42 0.40 0.39 0.39
0.17 0.18 0.18 0.17 0.17 0.16 0.16 0.16 0.16 0.17 0.18 0.17 0.17 0.17 0.17 0.18 0.20 0.18 0.17 0.17 0.17 0.20 0.20 0.20 0.23 0.24 0.24 0.24 0.27 0.29 0.31 0.32 0.35 0.37 0.36 0.36 0.36 0.37 0.37 0.37 0.38 0.38 0.37 0.36
0.12 0.11 0.11 0.12 0.13 0.13 0.13 0.13 0.14 0.14 0.13 0.13 0.13 0.13 0.13 0.13 0.14 0.14 0.15 0.15 0.16 0.18 0.18 0.18 0.18 0.20 0.21 0.22 0.25 0.27 0.28 0.29 0.31 0.32 0.31 0.32 0.32 0.33 0.33 0.33 0.33 0.34 0.34 0.33
0.08 0.08 0.08 0.08 0.08 0.08 0.10 0.11 0.12 0.12 0.13 0.16 0.17 0.15 0.14 0.13 0.12 0.13 0.14 0.15 0.16 0.17 0.17 0.18 0.19 0.21 0.22 0.23 0.24 0.25 0.26 0.28 0.28 0.30 0.31 0.32 0.32 0.32 0.32 0.32 0.32 0.32 0.32 0.31